Weather History for KDRM - April, 2013

Change the Weather History Date:

Tuesday, April 23, 2013

  Actual Average (KCIU) Record (KCIU)
Temperature  
Mean Temperature 38 °F -  
Max Temperature 45 °F 54 °F 73 °F (2001)
Min Temperature 32 °F 29 °F 19 °F (1989)
Degree Days  
Heating Degree Days 26    
Moisture  
Dew Point 35 °F    
Average Humidity 85    
Maximum Humidity 100    
Minimum Humidity 67    
Precipitation  
Precipitation 0.00 in - - ()
Sea Level Pressure  
Sea Level Pressure 29.94 in    
Wind  
Wind Speed 9 mph (SSE)    
Max Wind Speed 14 mph    
Max Gust Speed 23 mph    
Visibility 8 miles    
Events Rain , Snow    
Averages and records for this station are not official NWS values.
T = Trace of Precipitation, MM = Missing Value Source: NWS Daily Summary

Daily Weather History Graph

Daily Weather History Graph

Search for Another Location

Airport or City:

Trip Planner

Search our weather history database for the weather conditions in past years. The results will help you decide how hot, cold, wet, or windy it might be!

Date:

Astronomy

Apr. 23, 2013 Rise Set
Actual Time 6:34 AM EDT 8:32 PM EDT
Civil Twilight 6:02 AM EDT 9:05 PM EDT
Nautical Twilight 5:22 AM EDT 9:44 PM EDT
Astronomical Twilight 4:39 AM EDT 10:28 PM EDT
Moon 6:21 PM EDT (4/23) 5:09 AM EDT (4/23)
Length of Visible Light 15h 02m
Length of Day
13h 58m
Waxing Gibbous, 94% of the Moon is Illuminated
Apr 23
Waxing Gibbous
Apr 25
Full
May 2
Last Quarter
May 9
New
May 18
First Quarter

Hourly Weather History & Observations

Time (EDT) Temp. Windchill Dew Point Humidity Pressure Visibility Wind Dir Wind Speed Gust Speed Precip Events Conditions
12:15 AM 41.2 °F 35.0 °F 31.1 °F 67% 30.17 in 10.0 mi SE 10.4 mph 16.1 mph N/A   Clear
12:35 AM 41.0 °F 34.7 °F 31.1 °F 68% 30.17 in 10.0 mi SSE 10.4 mph - N/A   Clear
12:55 AM 40.6 °F 34.8 °F 31.3 °F 69% 30.16 in 10.0 mi SE 9.2 mph 16.1 mph N/A   Clear
1:16 AM 39.7 °F 33.2 °F 31.8 °F 73% 30.15 in 10.0 mi SE 10.4 mph - N/A   Clear
1:35 AM 39.9 °F 33.4 °F 31.8 °F 73% 30.15 in 10.0 mi SE 10.4 mph - N/A   Clear
1:55 AM 40.3 °F 33.9 °F 32.0 °F 72% 30.14 in 10.0 mi SSE 10.4 mph 18.4 mph N/A   Clear
2:16 AM 40.8 °F 34.5 °F 32.0 °F 71% 30.14 in 10.0 mi SSE 10.4 mph 18.4 mph N/A   Clear
2:35 AM 40.5 °F 34.6 °F 32.0 °F 72% 30.13 in 10.0 mi SE 9.2 mph 17.3 mph N/A   Clear
2:55 AM 40.5 °F 33.2 °F 32.0 °F 72% 30.12 in 10.0 mi SE 12.7 mph - N/A   Clear
3:16 AM 40.1 °F 33.2 °F 32.0 °F 73% 30.10 in 10.0 mi SE 11.5 mph 16.1 mph N/A   Clear
3:35 AM 39.4 °F 33.2 °F 32.0 °F 75% 30.10 in 10.0 mi SE 9.2 mph - N/A   Clear
3:55 AM 39.2 °F 33.0 °F 32.0 °F 75% 30.09 in 10.0 mi SE 9.2 mph - N/A   Clear
4:15 AM 39.2 °F 32.5 °F 32.4 °F 76% 30.08 in 10.0 mi SE 10.4 mph - N/A   Clear
4:35 AM 38.5 °F 31.6 °F 32.9 °F 80% 30.07 in 10.0 mi SE 10.4 mph 17.3 mph N/A   Clear
4:55 AM 38.8 °F 32.1 °F 33.1 °F 80% 30.06 in 10.0 mi SE 10.4 mph - N/A   Clear
5:15 AM 39.2 °F 32.5 °F 33.1 °F 79% 30.06 in 10.0 mi SE 10.4 mph - N/A   Clear
5:35 AM 38.8 °F 31.6 °F 33.4 °F 81% 30.04 in 10.0 mi SSE 11.5 mph - N/A   Clear
5:55 AM 38.5 °F 31.6 °F 33.6 °F 83% 30.03 in 10.0 mi SSE 10.4 mph - N/A   Clear
6:15 AM 38.8 °F 32.1 °F 33.8 °F 82% 30.01 in 10.0 mi SE 10.4 mph 16.1 mph N/A   Clear
6:36 AM 39.2 °F 33.0 °F 33.6 °F 80% 30.00 in 10.0 mi SSE 9.2 mph - N/A   Clear
6:55 AM 39.4 °F 33.2 °F 33.8 °F 80% 29.99 in 10.0 mi SSE 9.2 mph - N/A   Clear
7:15 AM 39.7 °F 33.2 °F 33.8 °F 79% 29.99 in 10.0 mi SE 10.4 mph - N/A   Clear
7:35 AM 40.1 °F 33.6 °F 34.0 °F 79% 29.98 in 10.0 mi SE 10.4 mph - N/A   Clear
7:55 AM 40.5 °F 34.1 °F 34.0 °F 78% 29.98 in 10.0 mi SE 10.4 mph 17.3 mph N/A   Clear
8:15 AM 41.0 °F 33.5 °F 34.2 °F 77% 29.97 in 10.0 mi SE 13.8 mph 18.4 mph N/A   Clear
8:35 AM 41.4 °F 34.3 °F 34.2 °F 76% 29.96 in 10.0 mi SE 12.7 mph 20.7 mph N/A   Clear
8:55 AM 42.3 °F 35.9 °F 34.7 °F 75% 29.96 in 10.0 mi SE 11.5 mph 19.6 mph N/A   Clear
9:16 AM 42.4 °F 36.1 °F 34.7 °F 74% 29.95 in 10.0 mi SSE 11.5 mph 21.9 mph N/A   Mostly Cloudy
9:35 AM 42.3 °F 35.5 °F 34.7 °F 75% 29.94 in 10.0 mi SSE 12.7 mph 21.9 mph N/A   Overcast
9:55 AM 41.4 °F 34.0 °F 34.7 °F 77% 29.95 in 10.0 mi SE 13.8 mph 23.0 mph N/A   Overcast
10:16 AM 41.4 °F 34.7 °F 35.1 °F 78% 29.93 in 10.0 mi SE 11.5 mph 20.7 mph N/A   Overcast
10:35 AM 43.0 °F 36.4 °F 35.6 °F 75% 29.93 in 10.0 mi SE 12.7 mph 18.4 mph N/A   Mostly Cloudy
10:55 AM 43.0 °F 37.2 °F 35.6 °F 75% 29.93 in 10.0 mi SSE 10.4 mph - N/A   Mostly Cloudy
11:16 AM 41.5 °F 35.9 °F 35.4 °F 79% 29.93 in 7.0 mi SE 9.2 mph 17.3 mph N/A Rain Light Rain
11:35 AM 40.3 °F 33.4 °F 37.2 °F 89% 29.92 in 7.0 mi SSE 11.5 mph - N/A Rain Light Rain
11:55 AM 40.1 °F 34.1 °F 37.6 °F 91% 29.92 in 10.0 mi SE 9.2 mph - N/A   Overcast
12:15 PM 40.5 °F 35.8 °F 37.6 °F 89% 29.90 in 10.0 mi SE 6.9 mph - N/A Rain Light Rain
12:35 PM 40.8 °F 35.6 °F 38.3 °F 91% 29.89 in 10.0 mi SE 8.1 mph - N/A   Light Drizzle
12:55 PM 41.0 °F 35.2 °F 37.8 °F 88% 29.88 in 10.0 mi SE 9.2 mph - N/A   Overcast
1:15 PM 42.1 °F 37.1 °F 38.5 °F 87% 29.87 in 10.0 mi SSE 8.1 mph - N/A   Overcast
1:35 PM 43.2 °F 39.0 °F 39.0 °F 85% 29.87 in 10.0 mi SE 6.9 mph - N/A   Overcast
1:55 PM 43.7 °F 38.1 °F 39.0 °F 84% 29.86 in 10.0 mi SSE 10.4 mph - N/A   Overcast
2:15 PM 44.6 °F 40.7 °F 38.7 °F 80% 29.86 in 10.0 mi SSE 6.9 mph - N/A   Overcast
2:35 PM 45.1 °F 40.8 °F 39.2 °F 80% 29.85 in 10.0 mi SSE 8.1 mph - N/A   Drizzle
2:55 PM 43.9 °F 39.3 °F 39.7 °F 85% 29.85 in 10.0 mi SE 8.1 mph - N/A   Drizzle
3:15 PM 43.3 °F 39.2 °F 39.7 °F 87% 29.83 in 10.0 mi SSE 6.9 mph - N/A Rain Rain
3:35 PM 43.5 °F 41.9 °F 40.1 °F 88% 29.83 in 10.0 mi South 3.5 mph - N/A   Light Drizzle
3:55 PM 43.3 °F 39.9 °F 40.3 °F 89% 29.82 in 10.0 mi South 5.8 mph - N/A   Light Drizzle
4:16 PM 43.0 °F - 41.0 °F 93% 29.83 in 10.0 mi Calm Calm - N/A   Drizzle
4:35 PM 42.8 °F - 41.2 °F 94% 29.83 in 5.0 mi Calm Calm - N/A Rain Rain
4:55 PM 42.4 °F - 41.5 °F 97% 29.83 in 4.0 mi Calm Calm - N/A Rain Rain
5:16 PM 40.6 °F - 39.7 °F 97% 29.84 in 4.0 mi Calm Calm - N/A Rain Rain
5:35 PM 40.6 °F 38.6 °F 40.3 °F 99% 29.83 in 2.5 mi West 3.5 mph - N/A Rain Rain
5:55 PM 41.4 °F 38.4 °F 41.2 °F 99% 29.83 in 3.0 mi WNW 4.6 mph - N/A Rain Rain
6:16 PM 40.8 °F 36.9 °F 40.6 °F 99% 29.83 in 3.0 mi WNW 5.8 mph - N/A Rain Light Rain
6:35 PM 38.1 °F 32.3 °F 37.9 °F 99% 29.84 in 3.0 mi NW 8.1 mph - N/A Rain Rain
6:55 PM 36.7 °F 31.2 °F 36.5 °F 99% 29.84 in 4.0 mi NW 6.9 mph - N/A Rain Rain
7:15 PM 36.1 °F 30.6 °F 36.0 °F 99% 29.85 in 4.0 mi NW 6.9 mph - N/A Rain Rain
7:35 PM 35.6 °F 29.2 °F 35.6 °F 100% 29.85 in 3.0 mi NW 8.1 mph - N/A Rain Rain
7:55 PM 34.7 °F 28.8 °F 34.0 °F 97% 29.85 in 3.0 mi NW 6.9 mph 17.3 mph N/A Rain Rain
8:15 PM 33.8 °F 27.7 °F 33.4 °F 99% 29.85 in 3.0 mi NW 6.9 mph - N/A Rain Rain
8:35 PM 33.4 °F 25.9 °F 33.1 °F 99% 29.86 in 4.0 mi NW 9.2 mph - N/A Rain Rain
8:56 PM 32.9 °F 25.9 °F 32.5 °F 99% 29.86 in 5.0 mi NW 8.1 mph - N/A Snow Light Snow
9:15 PM 32.9 °F 25.9 °F 32.2 °F 97% 29.86 in 5.0 mi NW 8.1 mph - N/A Snow Light Snow
9:35 PM 32.5 °F 27.1 °F 32.2 °F 99% 29.86 in 5.0 mi NW 5.8 mph - N/A Snow Light Snow
9:56 PM 32.5 °F 27.1 °F 32.4 °F 99% 29.87 in 7.0 mi NW 5.8 mph - N/A Snow Light Snow
10:15 PM 32.5 °F 26.2 °F 32.2 °F 99% 29.87 in 4.0 mi WNW 6.9 mph - N/A Snow Light Snow
10:35 PM 32.4 °F 27.9 °F 32.0 °F 99% 29.87 in 7.0 mi NW 4.6 mph - N/A Snow Light Snow
10:55 PM 32.2 °F 26.7 °F 32.0 °F 99% 29.86 in 7.0 mi NW 5.8 mph - N/A Snow Light Snow
11:15 PM 32.4 °F 27.9 °F 32.0 °F 99% 29.85 in 10.0 mi NW 4.6 mph - N/A   Overcast
11:35 PM 32.4 °F 25.3 °F 32.0 °F 99% 29.86 in 10.0 mi NW 8.1 mph - N/A   Overcast
11:55 PM 32.5 °F 26.2 °F 32.0 °F 98% 29.86 in 10.0 mi WNW 6.9 mph - N/A   Overcast